CDT,Max TemperatureF,Mean TemperatureF,Min TemperatureF,Max Dew PointF,MeanDew PointF,Min DewpointF,Max Humidity, Mean Humidity, Min Humidity, Max Sea Level PressureIn, Mean Sea Level PressureIn, Min Sea Level PressureIn, Max VisibilityMiles, Mean VisibilityMiles, Min VisibilityMiles, Max Wind SpeedMPH, Mean Wind SpeedMPH, Max Gust SpeedMPH,PrecipitationIn, CloudCover, Events, WindDirDegrees
2011-10-1,71,52,32,37,32,28,100,59,20,30.33,30.26,30.19,10,10,5,13,3,16,0.00,0,,170
2011-10-2,80,58,37,41,36,34,93,50,18,30.23,30.18,30.11,10,10,10,15,5,18,0.00,0,,180
2011-10-3,82,60,39,43,37,32,93,50,16,30.20,30.16,30.10,10,10,5,15,3,21,0.00,0,,173
2011-10-4,87,66,46,46,41,36,81,41,19,30.15,30.08,30.00,10,10,5,17,6,23,0.00,0,,174
2011-10-5,86,72,59,46,39,32,59,35,14,30.08,30.03,29.97,10,10,7,21,8,28,0.00,0,,175
2011-10-6,80,66,53,43,40,37,62,38,21,30.01,29.96,29.88,10,9,5,28,11,41,0.00,0,,164
2011-10-7,82,75,68,59,51,43,53,45,38,29.92,29.89,29.86,10,10,7,31,20,39,0.00,2,,177
2011-10-8,77,72,68,63,55,50,83,55,46,30.10,30.03,29.95,10,10,5,18,13,25,0.01,6,Rain,184
2011-10-9,82,68,55,61,51,41,94,59,25,30.18,30.11,30.04,10,10,10,21,7,25,0.00,2,,158
2011-10-10,71,62,53,59,53,48,100,74,49,30.05,29.99,29.92,10,10,5,16,7,21,0.02,3,Rain,178
2011-10-11,77,60,44,55,47,43,100,66,29,29.93,29.84,29.75,10,9,2,17,5,24,0.00,1,Thunderstorm,166
2011-10-12,68,60,51,55,51,46,100,75,49,29.76,29.73,29.69,10,10,7,12,3,18,0.01,5,Rain-Thunderstorm,341
2011-10-13,69,56,44,46,39,30,93,58,23,29.81,29.76,29.72,10,10,10,24,8,34,0.00,0,,305
2011-10-14,62,52,42,41,34,27,81,55,26,29.95,29.86,29.78,10,10,10,26,11,37,0.00,1,,300
2011-10-15,68,52,37,36,33,27,87,55,21,30.03,29.93,29.79,10,10,10,13,5,12,0.00,2,,238
2011-10-16,60,50,41,43,33,21,87,55,23,30.03,29.97,29.82,10,10,10,21,7,28,0.00,1,Rain,322
2011-10-17,59,44,30,32,28,19,93,57,22,30.02,29.99,29.96,10,10,10,18,4,26,0.00,1,,286
2011-10-18,53,43,33,32,26,18,87,55,26,30.09,30.04,29.96,10,10,10,21,10,31,0.00,2,,341
2011-10-19,46,36,26,30,25,21,80,66,49,30.13,30.09,30.07,10,10,10,15,7,20,0.00,4,,360
2011-10-20,53,40,28,32,29,27,100,68,35,30.05,30.03,29.99,10,10,10,12,5,18,0.00,0,,353
2011-10-21,68,46,23,36,29,21,93,61,26,30.08,30.04,30.00,10,10,7,15,3,18,0.00,0,,232
2011-10-22,64,48,33,41,35,30,100,61,30,30.15,30.10,30.05,10,10,7,9,2,,0.00,2,Rain,70
2011-10-23,75,55,35,45,39,34,100,64,25,29.99,29.91,29.83,10,9,2,20,5,25,0.00,1,,239
2011-10-24,71,52,32,39,34,32,100,60,23,30.08,29.99,29.77,10,10,10,10,2,,0.00,0,,179
2011-10-25,62,52,42,43,38,36,81,60,44,29.92,29.76,29.70,10,10,10,20,5,30,0.00,0,,13
2011-10-26,53,47,41,41,36,32,87,70,47,30.12,30.08,30.02,10,10,10,12,6,20,0.00,2,,348
2011-10-27,53,40,28,32,25,19,93,57,26,30.13,30.10,30.08,10,10,7,12,2,18,0.00,0,,290
2011-10-28,55,42,30,30,22,16,80,51,21,30.15,30.11,30.07,10,10,10,18,5,30,0.00,0,,297
2011-10-29,59,40,21,27,22,18,86,50,24,30.11,29.97,29.81,10,10,7,21,4,25,0.00,0,,158
2011-10-30,55,48,41,36,29,23,81,52,30,29.99,29.90,29.79,10,10,10,20,9,32,0.00,0,,300
2011-10-31,60,42,23,30,25,21,100,58,22,30.07,30.00,29.91,10,10,7,15,3,18,0.00,0,,181